This is the latest recevied weather packets stored in our database for station/object DG1JLA-3. If no packets are shown the sender has not sent any weather packets the latest 10 day(s).
| Time | Temp. | Humidity | Pressure | Rain* | Wind** | Luminosity | Snow |
|---|---|---|---|---|---|---|---|
| 1778021389 | 11.11° C | 93% | 1008.2 hPa | 2.03 mm | - | - | - |
| 1778021089 | 11.11° C | 93% | 1008.2 hPa | 2.79 mm | - | - | - |
| 1778020789 | 11.11° C | 93% | 1008.2 hPa | 3.81 mm | - | - | - |
| 1778020489 | 11.11° C | 93% | 1008.2 hPa | 5.33 mm | - | - | - |
| 1778020189 | 11.11° C | 93% | 1008.2 hPa | 6.1 mm | - | - | - |
| 1778019889 | 11.11° C | 93% | 1007.8 hPa | 6.1 mm | - | - | - |
| 1778019589 | 11.11° C | 93% | 1007.7 hPa | 6.35 mm | - | - | - |
| 1778019289 | 11.11° C | 93% | 1007.8 hPa | 6.35 mm | - | - | - |
| 1778018989 | 11.11° C | 93% | 1007.9 hPa | 6.6 mm | - | - | - |
| 1778018689 | 11.11° C | 93% | 1008.1 hPa | 7.11 mm | - | - | - |
| 1778018389 | 11.11° C | 93% | 1008.1 hPa | 7.62 mm | - | - | - |
| 1778018089 | 11.11° C | 93% | 1008.1 hPa | 7.62 mm | - | - | - |
| 1778017789 | 11.11° C | 93% | 1008.4 hPa | 8.13 mm | - | - | - |
| 1778017489 | 11.11° C | 93% | 1008.7 hPa | 8.64 mm | - | - | - |
| 1778017189 | 11.11° C | 93% | 1008.9 hPa | 9.14 mm | - | - | - |
| 1778016889 | 11.67° C | 93% | 1009.2 hPa | 9.4 mm | - | - | - |
| 1778016589 | 11.67° C | 93% | 1009.1 hPa | 9.91 mm | - | - | - |
| 1778016289 | 11.67° C | 93% | 1009.1 hPa | 10.67 mm | - | - | - |
| 1778015989 | 11.67° C | 93% | 1009.4 hPa | 11.94 mm | - | - | - |
| 1778015689 | 11.67° C | 93% | 1009.5 hPa | 12.19 mm | - | - | - |
| 1778015389 | 11.67° C | 93% | 1009.5 hPa | 12.45 mm | - | - | - |
| 1778015089 | 11.67° C | 93% | 1009.5 hPa | 11.94 mm | - | - | - |
| 1778014789 | 11.67° C | 93% | 1009.6 hPa | 11.68 mm | - | - | - |
| 1778014489 | 11.67° C | 93% | 1009.6 hPa | 11.68 mm | - | - | - |
| 1778014189 | 11.67° C | 93% | 1009.6 hPa | 11.68 mm | - | - | - |
* Rain latest hour (hover to see other rain measurements)
** Current wind speed in m/s (hover to see current wind gust speed)